Location: Newark
(7.1028°S, 35.3258°W)
Time: 17:30:27
(UTC+00:00)

A-11 Canister half - Visible Passes

Search period start: 19 February 2020 00:00
Search period end: 29 February 2020 00:00
Orbit: 1525 x 1684 km, 47.3° (Epoch: 18 February)

Date Brightness Start Highest point End Pass type
(mag) Time Alt. Az. Time Alt. Az. Time Alt. Az.
19 Feb 10.6 00:20:27 10° W 00:28:14 26° SW 00:31:15 23° SSW visible
19 Feb 11.5 06:57:01 10° SSE 07:00:14 12° SE 07:03:25 10° SE visible
19 Feb 9.0 21:51:47 10° NNW 22:01:16 66° NE 22:11:06 10° SE visible
19 Feb 10.5 23:58:31 10° W 00:06:31 28° SW 00:14:45 10° SSE visible
20 Feb 11.6 06:36:17 10° SSE 06:38:26 11° SE 06:40:33 10° SE visible
20 Feb 9.0 21:30:14 10° NNW 21:39:38 62° NE 21:49:21 10° SE visible
20 Feb 10.5 23:36:38 10° WNW 23:44:48 30° SW 23:53:16 10° SSE visible
21 Feb 9.1 21:08:43 10° NNW 21:17:59 58° NE 21:27:37 10° SE visible
21 Feb 10.4 23:14:46 10° WNW 23:23:06 32° SW 23:31:43 10° SSE visible
22 Feb 10.2 07:52:02 10° SSW 08:01:38 48° SE 08:10:54 10° ENE visible
22 Feb 9.2 20:47:11 10° NNW 20:56:21 54° NE 21:05:51 10° SE visible
22 Feb 10.3 22:52:55 10° WNW 23:01:24 34° SW 23:10:12 10° SSE visible
23 Feb 10.2 07:30:27 10° SSW 07:39:57 45° SE 07:49:08 10° ENE visible
23 Feb 10.3 22:31:05 10° WNW 22:39:42 37° SW 22:48:39 10° SSE visible
24 Feb 10.3 07:08:52 10° SSW 07:18:16 42° SE 07:27:21 10° ENE visible
24 Feb 10.2 22:09:16 10° WNW 22:18:01 39° SW 22:27:06 10° SSE visible
25 Feb 10.3 06:47:19 10° SSW 06:56:34 40° SE 07:05:33 10° ENE visible
25 Feb 10.2 21:47:28 10° WNW 21:56:20 42° SW 22:05:32 10° SSE visible
26 Feb 10.3 06:25:45 10° SSW 06:34:53 37° SE 06:43:43 10° ENE visible
26 Feb 10.1 21:25:42 10° WNW 21:34:39 45° SW 21:43:57 10° SSE visible
27 Feb 10.4 06:04:12 10° SSW 06:13:10 35° SE 06:21:52 10° ENE visible
27 Feb 10.1 21:03:56 10° WNW 21:12:59 48° SW 21:22:23 10° SSE visible
28 Feb 10.4 05:42:40 10° SSW 05:51:27 33° SE 06:00:00 10° ENE visible
28 Feb 9.2 07:46:47 10° SW 07:56:37 59° NW 08:06:10 10° NNE visible
